1278633630313,1.17847
1278633690313,1.19458
1278633750313,1.18056
1278633810313,1.18673
1278633870313,1.18592
1278633930313,1.17594
1278633990313,1.19286
1278634050313,1.18835
1278634110313,1.19929
1278634170313,1.19243
1278634230313,1.17992
1278634290313,1.17559
1278634350313,1.18255
1278634410313,1.18482
1278634470313,1.18166
1278634530313,1.18223
1278634590313,1.17719
1278634650313,1.17885
1278634710313,1.17863
1278634770313,1.18501
1278634830313,1.17530
1278634890313,1.17963
1278634950313,1.20584
1278635010313,1.17402
1278635070313,1.18029
1278635130313,1.17789
1278635190313,1.17605
1278635250313,1.17824
1278635310313,1.17914
1278635370313,1.16498
1278635430313,1.16832
1278635490313,1.17239
1278635550313,1.16699
1278635610313,1.17289
1278635670313,1.16619
1278635730313,1.16529
1278635790313,1.16393
1278635850313,1.17069
1278635910313,1.17130
1278635970313,1.17951
1278636030313,1.17695
1278636090313,1.16429
1278636150313,1.17602
1278636210313,1.17152
1278636270313,1.17234
1278636330313,1.17789
1278636390313,1.17989
1278636450313,1.16626
1278636510313,1.16893
1278636570313,1.17090
1278636630313,1.16752
1278636690313,1.16776
1278636750313,1.18135
1278636810313,1.15755
1278636870313,1.15864
1278636930313,1.15953
1278636990313,1.16405
1278637050313,1.16106
1278637110313,1.16163
1278637170313,1.16785
1278637230323,1.16257
1278637290323,1.16656
1278637350323,1.16434
1278637410323,1.19168
1278637470323,1.16333
1278637530323,1.16235
1278637590323,1.16202
1278637650323,1.15749
1278637710323,1.15276
1278637770323,1.15321
1278637830323,1.14993
1278637890323,1.15309
1278637950323,1.15113
1278638010323,1.15860
1278638070323,1.14964
1278638130323,1.15468
1278638190323,1.16543
1278638250323,1.14829
1278638310323,1.15407
1278638370323,1.15514
1278638430323,1.14692
1278638490323,1.15336
1278638550323,1.15030
1278638610323,1.14113
1278638670323,1.16688
1278638730323,1.15006
1278638790323,1.14026
1278638850323,1.14643
1278638910323,1.14784
1278638970323,1.14051
1278639030323,1.14530
1278639090323,1.15603
1278639150323,1.14502
1278639210323,1.15017
1278639270323,1.15199
1278639330323,1.14604
1278639390323,1.14425
1278639450323,1.15348
1278639510323,1.15128
1278639570323,1.13777
1278639630323,1.12940
1278639690323,1.15110
1278639750323,1.14200
1278639810323,1.14733
1278639870323,1.14075
1278639930323,1.14139
1278639990323,1.14727
1278640050323,1.13916
1278640110323,1.14640
1278640170323,1.14737
1278640230323,1.14041
1278640290323,1.13787
1278640350323,1.14865
1278640410323,1.14795
1278640470323,1.14066
1278640530323,1.14135
1278640590323,1.13117
1278640650323,1.13984
1278640710323,1.14361
1278640770323,1.13777
1278640830332,1.14599
1278640890332,1.13930
1278640950332,1.14273
1278641010332,1.15063
1278641070332,1.13524
1278641130332,1.13930
1278641190332,1.13665
1278641250332,1.14525
1278641310332,1.14190
1278641370332,1.14116
1278641430332,1.14211
1278641490332,1.13887
1278641550332,1.14062
1278641610332,1.12978
1278641670332,1.14020
1278641730332,1.13715
1278641790332,1.13376
1278641850332,1.13715
1278641910332,1.14086
1278641970332,1.13832
1278642030332,1.13788
1278642090332,1.14114
1278642150332,1.13245
1278642210332,1.13263
1278642270332,1.13678
1278642330332,1.14504
1278642390332,1.14250
1278642450332,1.14242
1278642510332,1.14046
1278642570332,1.14429
1278642630332,1.13970
1278642690332,1.14202
1278642750332,1.14205
1278642810332,1.15555
1278642870332,1.16826
1278642930332,1.14037
1278642990332,1.14373
1278643050332,1.13830
1278643110332,1.13549
1278643170332,1.13626
1278643230332,1.15050
1278643290332,1.14087
1278643350332,1.13978
1278643410332,1.14483
1278643470332,1.14547
1278643530332,1.15038
1278643590332,1.13729
1278643650332,1.13388
1278643710332,1.14230
1278643770332,1.14506
1278643830332,1.15253
1278643890332,1.13545
1278643950332,1.15422
1278644010332,1.14718
1278644070332,1.15114
1278644130332,1.14836
1278644190332,1.16497
1278644250332,1.15596
1278644310332,1.14422
1278644370332,1.14478
1278644430341,1.14547
1278644490341,1.14713
1278644550341,1.15290
1278644610341,1.14409
1278644670341,1.14803
1278644730341,1.15249
1278644790341,1.14869
1278644850341,1.15094
1278644910341,1.14983
1278644970341,1.15125
1278645030341,1.15465
1278645090341,1.14444
1278645150341,1.16345
1278645210341,1.15105
1278645270341,1.15184
1278645330341,1.16314
1278645390341,1.15566
1278645450341,1.14906
1278645510341,1.14520
1278645570341,1.15047
1278645630341,1.14614
1278645690341,1.18502
1278645750341,1.15070
1278645810341,1.15755
1278645870341,1.16029
1278645930341,1.16104
1278645990341,1.15414
1278646050341,1.15016
1278646110341,1.16004
1278646170341,1.15433
1278646230341,1.15873
1278646290341,1.16285
1278646350341,1.15257
1278646410341,1.15382
1278646470341,1.15791
1278646530341,1.15585
1278646590341,1.15729
1278646650341,1.15286
1278646710341,1.15334
1278646770341,1.15805
1278646830341,1.15564
1278646890341,1.15659
1278646950341,1.15480
1278647010341,1.15760
1278647070341,1.16584
1278647130341,1.16159
1278647190341,1.16100
1278647250341,1.15667
1278647310341,1.16045
1278647370341,1.16264
1278647430341,1.15685
1278647490341,1.15422
1278647550341,1.15453
1278647610341,1.16991
1278647670341,1.16276
1278647730341,1.17986
1278647790341,1.16477
1278647850341,1.16659
1278647910341,1.15603
1278647970341,1.16532
1278648030350,1.15756
1278648090350,1.15614
1278648150350,1.16491
1278648210350,1.16632
1278648270350,1.16294
1278648330350,1.16141
1278648390350,1.15947
1278648450350,1.16262
1278648510350,1.16542
1278648570350,1.16013
1278648630350,1.16575
1278648690350,1.16269
1278648750350,1.15554
1278648810350,1.16070
1278648870350,1.15989
1278648930350,1.15845
1278648990350,1.16044
1278649050350,1.16730
1278649110350,1.15421
1278649170350,1.15026
1278649230350,1.15628
1278649290350,1.17401
1278649350350,1.15709
1278649410350,1.15772
1278649470350,1.15827
1278649530350,1.15760
1278649590350,1.15776
1278649650350,1.16440
1278649710350,1.15189
1278649770350,1.16040
1278649830350,1.17068
1278649890350,1.16276
1278649950350,1.16366
1278650010350,1.15342
1278650070350,1.15592
1278650130350,1.16407
1278650190350,1.17093
1278650250350,1.16987
1278650310350,1.15858
1278650370350,1.16382
1278650430350,1.16777
1278650490350,1.15389
1278650550350,1.15686
1278650610350,1.16456
1278650670350,1.16541
1278650730350,1.17221
1278650790350,1.17145
1278650850350,1.16778
1278650910350,1.16316
1278650970350,1.16453
1278651030350,1.15973
1278651090350,1.16676
1278651150350,1.15453
1278651210350,1.16911
1278651270350,1.16458
1278651330350,1.16804
1278651390350,1.15638
1278651450350,1.16584
1278651510350,1.15693
1278651570350,1.15409
1278651630358,1.16880
1278651690358,1.16502
1278651750358,1.16971
1278651810358,1.15617
1278651870358,1.16904
1278651930358,1.16027
1278651990358,1.16442
1278652050358,1.16566
1278652110358,1.16318
1278652170358,1.17071
1278652230358,1.16548
1278652290358,1.17066
1278652350358,1.15999
1278652410358,1.16727
1278652470358,1.15505
1278652530358,1.16891
1278652590358,1.16404
1278652650358,1.15887
1278652710358,1.16672
1278652770358,1.17189
1278652830358,1.16776
1278652890358,1.17175
1278652950358,1.16519
1278653010358,1.16091
1278653070358,1.18505
1278653130358,1.17023
1278653190358,1.16784
1278653250358,1.16357
1278653310358,1.16681
1278653370358,1.17358
1278653430358,1.17079
1278653490358,1.17164
1278653550358,1.17011
1278653610358,1.16302
1278653670358,1.16751
1278653730358,1.17321
1278653790358,1.16774
1278653850358,1.17123
1278653910358,1.16021
1278653970358,1.16678
1278654030358,1.16581
1278654090358,1.16699
1278654150358,1.16480
1278654210358,1.17366
1278654270358,1.17640
1278654330358,1.17185
1278654390358,1.16797
1278654450358,1.16295
1278654510358,1.16342
1278654570358,1.16956
1278654630358,1.16818
1278654690358,1.16393
1278654750358,1.16113
1278654810358,1.16669
1278654870358,1.16710
1278654930358,1.17567
1278654990358,1.17058
1278655050358,1.17123
1278655110358,1.16973
1278655170358,1.16738
1278655230367,1.17042
1278655290367,1.17377
1278655350367,1.16951
1278655410367,1.16957
1278655470367,1.17418
1278655530367,1.17123
1278655590367,1.16963
1278655650367,1.17016
1278655710367,1.17121
1278655770367,1.17238
1278655830367,1.17999
1278655890367,1.17315
1278655950367,1.17368
1278656010367,1.16899
1278656070367,1.17543
1278656130367,1.17765
1278656190367,1.17214
1278656250367,1.16507
1278656310367,1.17733
1278656370367,1.17470
1278656430367,1.18652
1278656490367,1.17135
1278656550367,1.17812
1278656610367,1.18380
1278656670367,1.17628
1278656730367,1.17829
1278656790367,1.17767
1278656850367,1.18158
1278656910367,1.18281
1278656970367,1.17921
1278657030367,1.17799
1278657090367,1.18124
1278657150367,1.18147
1278657210367,1.17482
1278657270367,1.17416
1278657330367,1.18809
1278657390367,1.19166
1278657450367,1.18149
1278657510367,1.18256
1278657570367,1.17856
1278657630367,1.17783
1278657690367,1.17491
1278657750367,1.20055
1278657810367,1.17395
1278657870367,1.18409
1278657930367,1.18061
1278657990367,1.19039
1278658050367,1.18517
1278658110367,1.18792
1278658170367,1.18257
1278658230367,1.18022
1278658290367,1.18681
1278658350367,1.18272
1278658410367,1.18238
1278658470367,1.18040
1278658530367,1.17837
1278658590367,1.18620
1278658650367,1.18574
1278658710367,1.17067
1278658770367,1.17843
1278658830375,1.18508
1278658890375,1.17081
1278658950375,1.18746
1278659010375,1.17336
1278659070375,1.18727
1278659130375,1.17920
1278659190375,1.18305
1278659250375,1.18088
1278659310375,1.18432
1278659370375,1.18049
1278659430375,1.18250
1278659490375,1.18724
1278659550375,1.18249
1278659610375,1.17545
1278659670375,1.18010
1278659730375,1.16676
1278659790375,1.18702
1278659850375,1.17934
1278659910375,1.16807
1278659970375,1.17515
1278660030375,1.18813
1278660090375,1.17539
1278660150375,1.17900
1278660210375,1.18001
1278660270375,1.17899
1278660330375,1.18130
1278660390375,1.17588
1278660450375,1.16705
1278660510375,1.17496
1278660570375,1.17162
1278660630375,1.17616
1278660690375,1.17643
1278660750375,1.17719
1278660810375,1.16973
1278660870375,1.17557
1278660930375,1.17779
1278660990375,1.16891
1278661050375,1.16763
1278661110375,1.18588
1278661170375,1.17268
1278661230375,1.16958
1278661290375,1.16640
1278661350375,1.17703
1278661410375,1.17948
1278661470375,1.17748
1278661530375,1.17289
1278661590375,1.17249
1278661650375,1.16600
1278661710375,1.17453
1278661770375,1.16551
1278661830375,1.16984
1278661890375,1.17122
1278661950375,1.17239
1278662010375,1.16725
1278662070375,1.16524
1278662130375,1.17039
1278662190375,1.17280
1278662250375,1.16988
1278662310375,1.16957
1278662370375,1.17497
1278662430383,1.17763
1278662490383,1.16480
1278662550383,1.16630
1278662610383,1.16991
1278662670383,1.15800
1278662730383,1.16765
1278662790383,1.15727
1278662850383,1.16324
1278662910383,1.17135
1278662970383,1.15969
1278663030383,1.16248
1278663090383,1.16298
1278663150383,1.16728
1278663210383,1.16337
1278663270383,1.16133
1278663330383,1.15273
1278663390383,1.16018
1278663450383,1.15976
1278663510383,1.16195
1278663570383,1.16081
1278663630383,1.16082
1278663690383,1.15074
1278663750383,1.16003
1278663810383,1.15692
1278663870383,1.16378
1278663930383,1.14841
1278663990383,1.15423
1278664050383,1.14916
1278664110383,1.15998
1278664170383,1.15186
1278664230383,1.15449
1278664290383,1.15092
1278664350383,1.15011
1278664410383,1.15245
1278664470383,1.15874
1278664530383,1.15068
1278664590383,1.16747
1278664650383,1.15623
1278664710383,1.16211
1278664770383,1.15672
1278664830383,1.15308
1278664890383,1.15825
1278664950383,1.15137
1278665010383,1.16162
1278665070383,1.15929
1278665130383,1.15660
1278665190383,1.16204
1278665250383,1.15975
1278665310383,1.16317
1278665370383,1.16308
1278665430383,1.16440
1278665490383,1.16822
1278665550383,1.16332
1278665610383,1.16822
1278665670383,1.16152
1278665730383,1.16220
1278665790383,1.16499
1278665850383,1.17001
1278665910383,1.16919
1278665970383,1.17189
1278666030392,1.18967
1278666090392,1.20751
1278666150392,1.19027
1278666210392,1.18498
1278666270392,1.18589
1278666330392,1.18294
1278666390392,1.18639
1278666450392,1.17386
1278666510392,1.18311
1278666570392,1.18779
1278666630392,1.17069
1278666690392,1.17063
1278666750392,1.17359
1278666810392,1.17028
1278666870392,1.16749
1278666930392,1.15782
1278666990392,1.16594
1278667050392,1.15750
1278667110392,1.17107
1278667170392,1.15882
1278667230392,1.15868
1278667290392,1.17302
1278667350392,1.16535
1278667410392,1.15320
1278667470392,1.16643
1278667530392,1.15939
1278667590392,1.15575
1278667650392,1.16623
1278667710392,1.17358
1278667770392,1.16642
1278667830392,1.17942
1278667890392,1.16292
1278667950392,1.17497
1278668010392,1.16965
1278668070392,1.16933
1278668130392,1.17277
1278668190392,1.17840
1278668250392,1.18340
1278668310392,1.17955
1278668370392,1.17794
1278668430392,1.17593
1278668490392,1.17762
1278668550392,1.18368
1278668610392,1.17859
1278668670392,1.17661
1278668730392,1.18759
1278668790392,1.17639
1278668850392,1.18136
1278668910392,1.18309
1278668970392,1.17685
1278669030392,1.17949
1278669090392,1.18234
1278669150392,1.18110
1278669210392,1.18336
1278669270392,1.17350
1278669330392,1.17227
1278669390392,1.17810
1278669450392,1.18097
1278669510392,1.18295
1278669570392,1.17771
1278669630400,1.17879
1278669690400,1.18169
1278669750400,1.18075
1278669810400,1.18771
1278669870400,1.18794
1278669930400,1.18310
1278669990400,1.18249
1278670050400,1.19186
1278670110400,1.18452
1278670170400,1.19482
1278670230400,1.17770
1278670290400,1.19110
1278670350400,1.18576
1278670410400,1.19152
1278670470400,1.17905
1278670530400,1.18375
1278670590400,1.18946
1278670650400,1.18631
1278670710400,1.18200
1278670770400,1.19480
1278670830400,1.19643
1278670890400,1.19484
1278670950400,1.20264
1278671010400,1.19274
1278671070400,1.18957
1278671130400,1.18831
1278671190400,1.18269
1278671250400,1.19354
1278671310400,1.19521
1278671370400,1.19625
1278671430400,1.20215
1278671490400,1.18816
1278671550400,1.19094
1278671610400,1.18767
1278671670400,1.19532
1278671730400,1.18836
1278671790400,1.19530
1278671850400,1.19550
1278671910400,1.19244
1278671970400,1.19248
1278672030400,1.19415
1278672090400,1.19088
1278672150400,1.18718
1278672210400,1.18412
1278672270400,1.18173
1278672330400,1.19200
1278672390400,1.18313
1278672450400,1.18808
1278672510400,1.18657
1278672570400,1.19022
1278672630400,1.18879
1278672690400,1.19511
1278672750400,1.24230
1278672810400,1.22034
1278672870400,1.18262
1278672930400,1.19473
1278672990400,1.19114
1278673050400,1.19077
1278673110400,1.19399
1278673170400,1.18636
1278673230408,1.19024
1278673290408,1.19014
1278673350408,1.18913
1278673410408,1.19139
1278673470408,1.18344
1278673530408,1.18667
1278673590408,1.18525
1278673650408,1.18645
1278673710408,1.18164
1278673770408,1.18965
1278673830408,1.18515
1278673890408,1.19257
1278673950408,1.19842
1278674010408,1.18242
1278674070408,1.19377
1278674130408,1.17785
1278674190408,1.18361
1278674250408,1.19064
1278674310408,1.19504
1278674370408,1.19357
1278674430408,1.19312
1278674490408,1.19171
1278674550408,1.18961
1278674610408,1.18722
1278674670408,1.18968
1278674730408,1.18327
1278674790408,1.19566
1278674850408,1.18835
1278674910408,1.19313
1278674970408,1.19608
1278675030408,1.18782
1278675090408,1.19280
1278675150408,1.18948
1278675210408,1.19290
1278675270408,1.19380
1278675330408,1.18716
1278675390408,1.19546
1278675450408,1.20165
1278675510408,1.19613
1278675570408,1.19048
1278675630408,1.19199
1278675690408,1.19224
1278675750408,1.19841
1278675810408,1.19629
1278675870408,1.20141
1278675930408,1.19412
1278675990408,1.18942
1278676050408,1.20449
1278676110408,1.20457
1278676170408,1.19178
1278676230408,1.19535
1278676290408,1.20187
1278676350408,1.21102
1278676410408,1.18805
1278676470408,1.19759
1278676530408,1.19421
1278676590408,1.19524
1278676650408,1.19950
1278676710408,1.19800
1278676770408,1.20570
1278676830417,1.20057
1278676890417,1.20416
1278676950417,1.19525
1278677010417,1.21313
1278677070417,1.20367
1278677130417,1.22048
1278677190417,1.21135
1278677250417,1.20440
1278677310417,1.20753
1278677370417,1.21463
1278677430417,1.20633
1278677490417,1.20469
1278677550417,1.20827
1278677610417,1.21057
1278677670417,1.20035
1278677730417,1.21769
1278677790417,1.21036
1278677850417,1.20505
1278677910417,1.21782
1278677970417,1.22292
1278678030417,1.20876
1278678090417,1.21903
1278678150417,1.23422
1278678210417,1.21219
1278678270417,1.21994
1278678330417,1.21506
1278678390417,1.21501
1278678450417,1.22277
1278678510417,1.22252
1278678570417,1.21587
1278678630417,1.20231
1278678690417,1.21364
1278678750417,1.20986
1278678810417,1.21120
1278678870417,1.21144
1278678930417,1.21289
1278678990417,1.21178
1278679050417,1.21929
1278679110417,1.21073
1278679170417,1.21637
1278679230417,1.22101
1278679290417,1.21394
1278679350417,1.23118
1278679410417,1.21525
1278679470417,1.22600
1278679530417,1.21772
1278679590417,1.22726
1278679650417,1.23382
1278679710417,1.23677
1278679770417,1.22643
1278679830417,1.23358
1278679890417,1.23643
1278679950417,1.22569
1278680010417,1.22931
1278680070417,1.22102
1278680130417,1.23553
1278680190417,1.22847
1278680250417,1.22844
1278680310417,1.23176
1278680370417,1.22845
1278680430425,1.22086
1278680490425,1.21768
1278680550425,1.23131
1278680610425,1.22952
1278680670425,1.23794
1278680730425,1.22801
1278680790425,1.23766
1278680850425,1.23362
1278680910425,1.23034
1278680970425,1.23855
1278681030425,1.23386
1278681090425,1.23221
1278681150425,1.24243
1278681210425,1.23119
1278681270425,1.22389
1278681330425,1.22496
1278681390425,1.24206
1278681450425,1.22655
1278681510425,1.23203
1278681570425,1.23517
1278681630425,1.24384
1278681690425,1.24001
1278681750425,1.23181
1278681810425,1.23090
1278681870425,1.23719
1278681930425,1.23114
1278681990425,1.22916
1278682050425,1.22868
1278682110425,1.22972
1278682170425,1.23494
1278682230425,1.22824
1278682290425,1.22771
1278682350425,1.25098
1278682410425,1.23707
1278682470425,1.23260
1278682530425,1.22605
1278682590425,1.23822
1278682650425,1.24025
1278682710425,1.22894
1278682770425,1.24382
1278682830425,1.23795
1278682890425,1.22882
1278682950425,1.22297
1278683010425,1.24227
1278683070425,1.23486
1278683130425,1.23945
1278683190425,1.23352
1278683250425,1.22180
1278683310425,1.23557
1278683370425,1.23756
1278683430425,1.23075
1278683490425,1.23244
1278683550425,1.22911
1278683610425,1.23968
1278683670425,1.22912
1278683730425,1.24044
1278683790425,1.23759
1278683850425,1.25256
1278683910425,1.24347
1278683970425,1.24432
1278684030433,1.23680
1278684090433,1.23912
1278684150433,1.23276
1278684210433,1.22636
1278684270433,1.24108
1278684330433,1.23342
1278684390433,1.24550
1278684450433,1.23754
1278684510433,1.24131
1278684570433,1.23484
1278684630433,1.23496
1278684690433,1.23565
1278684750433,1.23311
1278684810433,1.22882
1278684870433,1.23884
1278684930433,1.23142
1278684990433,1.23904
1278685050433,1.23009
1278685110433,1.22395
1278685170433,1.22437
1278685230433,1.23818
1278685290433,1.22890
1278685350433,1.22650
1278685410433,1.22893
1278685470433,1.22625
1278685530433,1.23728
1278685590433,1.22588
1278685650433,1.22956
1278685710433,1.23129
1278685770433,1.22381
1278685830433,1.21962
1278685890433,1.22936
1278685950433,1.22947
1278686010433,1.21891
1278686070433,1.22228
1278686130433,1.22633
1278686190433,1.22297
1278686250433,1.22792
1278686310433,1.22173
1278686370433,1.21523
1278686430433,1.22607
1278686490433,1.22445
1278686550433,1.21778
1278686610433,1.22204
1278686670433,1.22892
1278686730433,1.22178
1278686790433,1.20887
1278686850433,1.22218
1278686910433,1.22135
1278686970433,1.21084
1278687030433,1.21259
1278687090433,1.21990
1278687150433,1.21967
1278687210433,1.21435
1278687270433,1.22161
1278687330433,1.20650
1278687390433,1.21064
1278687450433,1.21831
1278687510433,1.20970
1278687570433,1.21292
1278687630442,1.20705
1278687690442,1.20662
1278687750442,1.21598
1278687810442,1.20297
1278687870442,1.20648
1278687930442,1.20135
1278687990442,1.21284
1278688050442,1.19945
1278688110442,1.20494
1278688170442,1.20282
1278688230442,1.20080
1278688290442,1.20090
1278688350442,1.21030
1278688410442,1.19920
1278688470442,1.18952
1278688530442,1.18912
1278688590442,1.19850
1278688650442,1.19679
1278688710442,1.20105
1278688770442,1.19053
1278688830442,1.19700
1278688890442,1.19076
1278688950442,1.18641
1278689010442,1.18715
1278689070442,1.18968
1278689130442,1.18660
1278689190442,1.19910
1278689250442,1.18553
1278689310442,1.18119
1278689370442,1.18502
1278689430442,1.19078
1278689490442,1.18250
1278689550442,1.18865
1278689610442,1.18967
1278689670442,1.19048
1278689730442,1.18317
1278689790442,1.17621
1278689850442,1.18142
1278689910442,1.18363
1278689970442,1.19287
1278690030442,1.19726
1278690090442,1.19099
1278690150442,1.18308
1278690210442,1.18521
1278690270442,1.18411
1278690330442,1.18443
1278690390442,1.18284
1278690450442,1.18296
1278690510442,1.18855
1278690570442,1.18262
1278690630442,1.18202
1278690690442,1.18586
1278690750442,1.18749
1278690810442,1.19052
1278690870442,1.18642
1278690930442,1.18186
1278690990442,1.22076
1278691050442,1.18539
1278691110442,1.19002
1278691170442,1.17583
1278691230451,1.18536
1278691290451,1.18095
1278691350451,1.18182
1278691410451,1.18585
1278691470451,1.22491
1278691530451,1.19563
1278691590451,1.18428
1278691650451,1.18951
1278691710451,1.19359
1278691770451,1.18753
1278691830451,1.18310
1278691890451,1.18483
1278691950451,1.19014
1278692010451,1.19001
1278692070451,1.18108
1278692130451,1.18986
1278692190451,1.18320
1278692250451,1.18366
1278692310451,1.18769
1278692370451,1.18403
1278692430451,1.19083
1278692490451,1.17966
1278692550451,1.17705
1278692610451,1.17121
1278692670451,1.17966
1278692730451,1.18091
1278692790451,1.17826
1278692850451,1.18078
1278692910451,1.17761
1278692970451,1.18088
1278693030451,1.18106
1278693090451,1.18106
1278693150451,1.17700
1278693210451,1.17540
1278693270451,1.18798
1278693330451,1.18320
1278693390451,1.17865
1278693450451,1.18051
1278693510451,1.17842
1278693570451,1.17632
1278693630451,1.17235
1278693690451,1.18210
1278693750451,1.18222
1278693810451,1.17979
1278693870451,1.17694
1278693930451,1.17673
1278693990451,1.17476
1278694050451,1.17236
1278694110451,1.16917
1278694170451,1.16756
1278694230451,1.17354
1278694290451,1.17681
1278694350451,1.17229
1278694410451,1.16364
1278694470451,1.17386
1278694530451,1.18225
1278694590451,1.16626
1278694650451,1.17655
1278694710451,1.17057
1278694770451,1.17198
1278694830460,1.17708
1278694890460,1.16892
1278694950460,1.16532
1278695010460,1.16036
1278695070460,1.16152
1278695130460,1.16886
1278695190460,1.16777
1278695250460,1.17389
1278695310460,1.16347
1278695370460,1.17083
1278695430460,1.16041
1278695490460,1.18570
1278695550460,1.16394
1278695610460,1.16935
1278695670460,1.16923
1278695730460,1.16369
1278695790460,1.16111
1278695850460,1.16834
1278695910460,1.16170
1278695970460,1.16524
1278696030460,1.16918
1278696090460,1.16322
1278696150460,1.16189
1278696210460,1.17022
1278696270460,1.16676
1278696330460,1.17374
1278696390460,1.17454
1278696450460,1.16272
1278696510460,1.16620
1278696570460,1.16664
1278696630460,1.16368
1278696690460,1.16254
1278696750460,1.16845
1278696810460,1.16832
1278696870460,1.16629
1278696930460,1.17094
1278696990460,1.15818
1278697050460,1.17953
1278697110460,1.16320
1278697170460,1.16687
1278697230460,1.15937
1278697290460,1.16111
1278697350460,1.16968
1278697410460,1.16187
1278697470460,1.15518
1278697530460,1.15892
1278697590460,1.15965
1278697650460,1.15895
1278697710460,1.16141
1278697770460,1.16722
1278697830460,1.16063
1278697890460,1.17172
1278697950460,1.16236
1278698010460,1.16317
1278698070460,1.16436
1278698130460,1.17379
1278698190460,1.15789
1278698250460,1.16536
1278698310460,1.16810
1278698370460,1.16489
1278698430470,1.16499
1278698490470,1.16458
1278698550470,1.16542
1278698610470,1.16962
1278698670470,1.16496
1278698730470,1.17291
1278698790470,1.16501
1278698850470,1.16320
1278698910470,1.16017
1278698970470,1.16640